Tracking 23439 objects as of 16-Jun-2021
HD Live streaming from Space Station
objects crossing your sky now

IUS DEB

Track IUS DEB now!
10-day predictions


NORAD ID: 43363
Int'l Code: 1999-040L
Perigee: 352.6 km
Apogee: 7,289.8 km
Inclination: 28.4 °
Period: 170.7 minutes
Semi major axis: 10192 km
RCS: Unknown
Launch date: July 23, 1999
Source: United States (US)
Launch site: AIR FORCE EASTERN TEST RANGE (AFETR)

Note: This is SATELLITE DEBRIS
aabbcc
Your satellite tracking list
Your tracking list is empty




NASA's NSSDC Master Catalog

Two Line Element Set (TLE):
1 43363U 99040L   21143.25661964  .00068813  00000-0  10207-1 0  9998
2 43363  28.3551  18.3005 3403195 233.1150  90.6934  8.43729208239707
Source of the keplerian elements: AFSPC